Weather in Soloniki

Belarus     55°29′01″N   28°51′34″E
temp.,
°C
wind,
m/s
gust,
m/s
humid.,
%
clouds,
%
prec.,
mm/h
press.,
hPa
HPBL,
m
17 september, fri
fri1700:00+8ese4966100 0.0 1018336
03:00+7ese3968100 0.0 1018391
06:00+7ese4980100 0.1 1017404
09:00+7e51076100 0.1 1016448
12:00+7e51065100 0.0 1017592
15:00+9ese4957100 0.0 1016734
18:00+10ese395865 0.0 1016577
21:00+7ene3972100 0.0 1017227
18 september, sat
sat1800:00+7ene5136634 0.0 1017626
03:00+5ene6146856 0.0 1017603
06:00+5ene6156993 0.0 1017637
09:00+6ene71561100 0.0 1017763
12:00+10ene81349100 0.0 10161041
15:00+11ene71449100 0.0 10151208
18:00+10ene81548100 0.0 10141247
21:00+8ene81663100 0.4 10151123
19 september, sun
sun1900:00+6ene81688100 3.1 1014971
03:00+6ene71591100 6.4 1014952
06:00+6ene71494100 2.3 1014867
09:00+6ene61394100 5.0 1014800
12:00+6ene61294100 1.4 1015777
15:00+6ene61294100 2.5 1016796
18:00+5ene51197100 1.0 1016974
21:00+5ne61297100 2.2 10161018
20 september, mon
mon2000:00+4ne61297100 1.3 1016932
03:00+4ne61197100 2.5 1016966
06:00+4ne61197100 0.6 1016938
09:00+4ne61293100 0.6 1016970
12:00+4ne61296100 0.0 1017912
15:00+4ne61297100 0.7 1017870
18:00+4ne51297100 1.1 10171000
21:00+4ne51297100 1.8 1017937
21 september, tue
tue2100:00+4nne51197100 1.8 1017897
03:00+4nne5997100 3.8 1016810
06:00+3nne41098100 1.6 1016568
09:00+2n4998100 2.8 1016513
12:00+3n4898100 0.8 1016540
15:00+3n4898100 1.3 1016511
18:00+3n4897100 0.4 1017569
21:00+3nnw4898100 0.5 1017564